x

Scilly St Marys (03803) Weather Station

11:00am - Sun 1st Feb 2015 All times are GMT.

  • Wind
    24mph, 32mph gusts
  • 空気 Temp 42°f
  • Sea Pressure 1011mb
  • Scilly St Marys
  • Scilly St Marys

More Historic Weather Station data

Upgrade to MSW Pro to gain access to the past 30 days of data for over 8000 Wavebouys and Weather Stations around the globe.

Join Pro

Comparision Forecast

View Surf forecast
   
Sun 02/01 11:00am 24 32 mph 1011mb 42f
10:00am 24 37 mph 1010mb 42f
9:00am 26 44 mph 1010mb 42f
8:00am 23 37 mph 1009mb 42f
7:00am 25 43 mph 1009mb 42f
6:00am 24 36 mph 1009mb 42f
5:00am 28 40 mph 1008mb 43f
4:00am 25 41 mph 1008mb 43f
3:00am 26 37 mph 1008mb 42f
2:00am 25 38 mph 1008mb 42f
1:00am 28 40 mph 1007mb 43f
12:00am 25 45 mph 1007mb 43f
Sat 01/31 11:00pm 31 43 mph 1007mb 43f
10:00pm 30 45 mph 1006mb 43f
9:00pm 26 47 mph 1006mb 44f
8:00pm 28 49 mph 1005mb 44f
7:00pm 34 51 mph 1004mb 44f
6:00pm 32 49 mph 1002mb 44f
5:00pm 37 49 mph 1001mb 44f
4:00pm 34 49 mph 1000mb 44f
3:00pm 34 48 mph 999mb 44f
2:00pm 36 48 mph 998mb 44f
1:00pm 36 51 mph 997mb 45f
12:00pm 34 51 mph 996mb 44f
11:00am 36 51 mph 995mb 44f
10:00am 34 49 mph 994mb 43f
9:00am 31 45 mph 993mb 43f
8:00am 31 44 mph 992mb 43f
7:00am 30 43 mph 991mb 43f
6:00am 31 45 mph 990mb 43f
5:00am 31 41 mph 990mb 43f
4:00am 29 45 mph 989mb 43f
3:00am 26 41 mph 989mb 42f
2:00am 26 39 mph 989mb 43f
1:00am 24 38 mph 989mb 43f
12:00am 28 36 mph 988mb 43f
Fri 01/30 11:00pm 24 36 mph 988mb 44f
10:00pm 22 31 mph 988mb 44f
9:00pm 15 33 mph 987mb 42f
8:00pm 19 36 mph 987mb 45f
7:00pm 19 29 mph 987mb 44f
6:00pm 16 39 mph 987mb 43f
5:00pm 22 30 mph 987mb 45f
4:00pm 18 29 mph 987mb 46f
3:00pm 22 30 mph 987mb 46f
2:00pm 22 33 mph 987mb 47f
1:00pm 22 32 mph 988mb 47f
12:00pm 22 32 mph 989mb 47f
11:00am 23 34 mph 989mb 47f
10:00am 23 40 mph 989mb 47f
9:00am 25 38 mph 989mb 46f
8:00am 29 48 mph 989mb 46f
7:00am 32 48 mph 989mb 46f
6:00am 34 56 mph 989mb 47f
5:00am 36 54 mph 989mb 47f
4:00am 37 55 mph 988mb 46f
3:00am 38 54 mph 989mb 44f
2:00am 37 59 mph 989mb 45f
1:00am 33 52 mph 990mb 46f
12:00am 33 45 mph 990mb 45f
Thu 01/29 11:00pm 31 43 mph 991mb 44f
10:00pm 29 41 mph 991mb 43f
9:00pm 29 45 mph 991mb 42f
8:00pm 31 48 mph 990mb 43f
7:00pm 30 52 mph 989mb 40f
6:00pm 25 47 mph 988mb 42f
5:00pm 26 44 mph 988mb 43f
4:00pm 29 47 mph 988mb 42f
3:00pm 33 54 mph 988mb 45f
2:00pm 33 57 mph 988mb 45f
1:00pm 36 48 mph 989mb 46f
12:00pm 30 45 mph 990mb 45f
11:00am 25 39 mph 991mb 46f
10:00am 28 41 mph 993mb 44f
9:00am 25 41 mph 994mb 46f
8:00am 26 40 mph 995mb 45f
7:00am 23 40 mph 997mb 45f
6:00am 26 44 mph 998mb 44f
5:00am 29 43 mph 999mb 45f
4:00am 28 44 mph 1001mb 44f
3:00am 24 41 mph 1002mb 45f
2:00am 28 43 mph 1003mb 46f
1:00am 33 46 mph 1005mb 44f
12:00am 28 41 mph 1006mb 45f
Wed 01/28 11:00pm 23 38 mph 1007mb 45f
10:00pm 25 46 mph 1008mb 44f
9:00pm 25 45 mph 1009mb 42f
8:00pm 32 44 mph 1009mb 45f
7:00pm 29 53 mph 1010mb 44f
6:00pm 22 47 mph 1011mb 43f
5:00pm 23 38 mph 1011mb 44f
4:00pm 23 37 mph 1012mb 45f
3:00pm 28 41 mph 1012mb 46f
2:00pm 31 45 mph 1012mb 47f
1:00pm 30 49 mph 1012mb 45f
12:00pm 34 49 mph 1012mb 46f